Flag for U.S.A. Weather past 2 weeks in St. Petersburg, Florida, U.S.A.

Now
88 °F

Sunny.


Feels Like: 99 °F
Forecast: 81 / 94 °F
Wind: No wind

Location: Whitted Airport

Current Time: Aug 20, 2014 at 10:43:20 AM

Latest Report: Aug 20, 2014 at 9:53 AM


Visibility: 10 mi

Pressure: 30.08 "Hg

Humidity: 67%

Dew point: 76 °F

Location of St. PetersburgLocation

Historic Weather in St. Petersburg — Graph

°F

St. Petersburg temperature yesterday

Maximum temperature yesterday: 90 °F (at 2:53 PM)
Minimum temperature yesterday: 81 °F (at 3:53 AM)
Average temperature yesterday: 85 °F

Past Weeks' High & Low Weather Summary

 TemperatureHumidityPressure
High90 °F (Aug 7, 1:53 PM)91% (Aug 17, 8:53 AM)30.10 "Hg (Aug 17, 8:53 AM)
Low76 °F (Aug 15, 1:53 PM)50% (Aug 19, 1:53 PM)29.93 "Hg (Aug 12, 6:53 PM)
Average84 °F73%30.01 "Hg
* Reported Aug 5 9:53 AM — Aug 20 9:53 AM, St. Petersburg, Weather by CustomWeather, © 2014

Note: Actual official high and low records may vary slightly from our data, if they occured in-between our weather recording intervals... More about our weather records

Advertising

St. Petersburg weather history for previous 24 hours

 ConditionsComfort  
Time TempWeatherWind HumidityBarometerVisibility
9:53 AM
Aug 20
88 °FSunny.No wind67%30.08 "Hg10 mi
8:53 AM86 °FSunny.3 mph70%30.06 "Hg10 mi
7:53 AM84 °FClear.No wind77%30.03 "Hg10 mi
6:53 AM82 °FClear.No wind74%30.01 "Hg10 mi
5:53 AM83 °FClear.No wind74%30.00 "Hg10 mi
4:53 AM83 °FClear.No wind72%29.98 "Hg10 mi
3:53 AM83 °FClear.5 mph74%29.99 "Hg10 mi
2:53 AM83 °FClear.3 mph77%29.99 "Hg10 mi
1:53 AM84 °FClear.3 mph72%29.99 "Hg10 mi
12:53 AM85 °FClear.3 mph72%30.00 "Hg10 mi
11:53 PM
Aug 19
85 °FClear.No wind70%30.01 "Hg10 mi
10:53 PM86 °FClear.No wind65%30.01 "Hg10 mi
9:53 PM86 °FClear.5 mph65%29.99 "Hg10 mi
8:53 PM86 °FSunny.6 mph65%29.99 "Hg10 mi
7:53 PM87 °FSunny.6 mph59%29.97 "Hg10 mi
6:53 PM88 °FSunny.9 mph57%29.98 "Hg10 mi
5:53 PM89 °FSunny.7 mph57%29.96 "Hg10 mi
4:53 PM89 °FSunny.7 mph55%29.98 "Hg10 mi
3:53 PM89 °FSunny.9 mph55%29.98 "Hg10 mi
2:53 PM90 °FSunny.12 mph50%29.99 "Hg10 mi
1:53 PM89 °FSunny.13 mph50%30.01 "Hg10 mi
12:53 PM89 °FPassing clouds.7 mph52%30.02 "Hg10 mi
11:53 AM87 °FSunny.10 mph69%30.03 "Hg10 mi
10:53 AM86 °FBroken clouds.7 mph72%30.05 "Hg10 mi
Weather by CustomWeather, © 2014

See weather overviewHow to use our weather pages